GFSNE_con_lsi_294.txt.gz
Lid_Strength_Index
10 10 10 10 9 9 9 10 11 15 16 14 14 12 11 10 9 9 9 8 8 9 7 6 7 6 0 1 0 0 0 -0 0 -0 -1 -0 -1 -1
10 11 11 10 10 10 10 10 10 11 14 11 12 12 11 11 10 10 9 9 9 9 8 8 7 7 6 1 1 1 1 1 0 -0 -0 -0 -1 -1
10 11 11 10 11 10 10 10 10 10 12 11 10 10 12 12 12 10 9 9 9 8 9 10 7 7 7 5 2 1 1 1 -0 -0 -0 0 -0 -1
9 9 10 9 10 10 10 11 11 11 11 13 11 11 11 12 12 11 9 9 9 8 8 8 8 8 8 7 5 2 2 2 1 1 0 1 1 0
8 9 9 8 9 9 10 10 10 10 11 11 12 10 10 10 12 12 11 9 8 8 7 8 7 7 9 7 6 3 3 2 3 2 2 2 1 1
8 8 8 8 8 9 9 9 9 10 11 11 12 11 10 9 10 12 12 9 9 8 8 8 7 8 8 7 5 4 4 3 3 3 3 3 3 2
7 7 7 6 6 6 8 9 9 10 11 12 12 12 11 11 11 10 10 10 9 9 9 8 9 9 8 8 5 5 4 4 3 3 3 3 3 3
5 6 6 5 5 4 4 4 6 10 11 11 11 12 11 11 10 10 10 11 13 8 11 11 10 10 10 8 7 8 4 4 4 3 4 3 4 3
5 4 5 5 5 7 5 4 5 4 5 8 11 11 11 10 9 9 10 11 12 9 12 13 10 12 9 8 7 8 8 4 3 4 4 4 4 4
5 5 4 5 6 6 6 7 7 7 7 7 8 7 7 8 9 9 9 9 10 10 10 14 11 11 10 9 8 8 7 5 4 4 4 4 5 5
5 5 4 4 3 3 5 6 6 7 5 5 5 5 5 6 6 8 9 10 12 12 10 13 12 12 10 10 8 8 8 6 4 4 4 4 5 5
5 5 4 4 3 1 4 5 6 6 7 6 7 7 6 6 5 7 8 10 12 13 10 11 12 12 14 11 10 10 9 6 5 5 5 5 5 3
7 6 5 4 3 3 3 4 5 5 5 6 7 7 7 7 7 7 7 8 11 12 11 11 14 13 13 14 14 11 10 10 8 4 5 5 6 3
8 7 6 4 4 4 4 3 3 2 5 6 7 7 7 7 7 6 6 6 7 10 11 11 13 13 14 14 14 13 11 11 10 7 3 4 6 5
8 7 5 5 4 5 5 4 4 4 5 6 7 7 7 6 6 5 5 6 6 7 8 9 11 13 14 14 14 14 14 13 11 10 7 3 5 4
7 8 7 7 6 6 7 6 6 6 6 7 6 5 5 6 6 8 7 7 8 8 8 9 12 12 14 14 14 15 15 16 12 11 11 9 3 3
8 9 10 10 10 9 9 8 8 7 8 7 7 7 7 6 6 6 6 7 8 10 11 11 11 12 12 14 15 15 15 16 13 13 12 12 8 4
10 12 12 11 11 11 10 10 9 8 9 9 8 8 8 7 7 7 7 8 8 9 12 14 13 14 14 14 13 15 15 15 14 14 13 13 11 5
12 12 12 12 12 11 11 11 10 9 9 9 9 9 8 9 8 8 9 9 9 9 9 12 14 15 16 18 14 11 15 14 14 14 13 13 14 10
12 13 12 12 12 12 12 11 11 10 10 9 10 10 10 9 10 10 10 11 10 9 10 11 12 14 15 16 15 13 12 13 14 13 13 15 14 13
13 13 12 12 12 12 11 11 11 11 10 11 10 10 10 10 10 10 10 9 10 11 12 12 10 9 11 14 15 14 13 12 11 13 14 14 15 15
13 13 12 12 12 12 12 11 11 11 11 11 11 10 10 10 10 10 10 10 10 11 11 12 11 10 12 13 14 14 15 14 13 12 12 12 14 14
12 12 12 12 12 12 12 12 12 12 11 11 11 11 10 11 10 10 10 9 10 11 11 11 13 12 13 13 13 14 14 13 14 14 14 12 12 13

GFSNE_con_lsi_297.txt.gz
Lid_Strength_Index
15 15 14 12 11 10 10 11 12 15 14 12 13 11 12 12 11 11 12 10 9 8 7 8 9 8 6 6 5 2 0 0 0 -0 -1 -0 -1 -1
13 12 11 11 11 11 10 10 10 12 14 11 11 10 10 10 11 11 12 11 10 8 7 8 8 8 8 6 6 6 1 1 -0 -0 -1 0 -0 -1
11 11 11 10 11 11 10 11 11 11 13 12 10 9 10 10 11 12 11 11 12 9 8 8 8 8 8 7 7 6 5 1 0 -0 -0 -1 -0 -0
11 10 10 9 10 9 9 10 11 11 12 13 12 11 11 10 10 11 11 11 11 10 8 7 7 7 7 8 7 7 7 2 1 1 1 0 -0 0
10 10 10 9 9 9 9 9 9 9 10 12 12 11 10 9 9 9 10 11 10 9 7 7 6 6 7 7 8 8 8 7 2 3 2 1 1 0
9 9 9 9 8 8 8 8 8 9 9 11 12 12 11 10 10 10 10 10 11 8 8 7 7 7 6 6 7 8 7 7 4 2 3 3 3 2
9 8 8 6 5 5 7 8 8 9 9 10 11 12 12 12 12 10 10 10 10 10 9 8 7 7 7 8 8 8 8 8 5 2 3 3 3 3
7 6 6 4 4 3 2 3 5 9 9 10 10 11 12 11 11 10 10 10 10 9 9 10 9 9 8 7 7 7 8 8 7 4 3 3 3 3
7 7 6 5 4 4 4 3 3 2 3 8 9 9 10 10 10 11 11 11 11 10 10 11 10 11 9 7 7 7 8 9 9 8 4 4 4 4
7 7 6 6 5 4 5 6 6 6 6 6 6 7 7 7 8 9 10 10 10 8 8 13 11 11 10 9 8 7 9 8 8 8 5 4 4 4
6 7 7 7 4 3 4 5 6 6 4 3 3 4 4 4 6 8 10 10 11 10 8 11 11 12 10 9 8 6 9 8 8 7 6 4 5 5
7 6 5 6 4 3 5 5 6 5 6 6 6 5 4 5 4 6 7 9 10 11 9 11 11 11 12 8 7 8 7 7 9 8 5 4 5 3
8 8 7 5 4 3 3 5 5 4 4 5 6 6 6 7 7 7 8 8 9 10 8 9 10 10 12 12 11 9 9 10 9 8 8 5 5 3
9 8 8 5 5 4 5 4 3 4 4 4 6 6 6 6 7 7 7 7 7 8 7 7 9 10 11 11 13 12 10 10 9 10 9 7 5 4
8 7 6 6 6 6 6 5 5 6 7 6 6 6 6 5 6 6 6 6 6 6 6 7 7 9 10 12 13 13 13 13 12 12 11 10 10 4
7 8 8 8 8 7 8 7 7 7 7 7 7 6 5 6 6 6 6 6 7 7 6 6 6 7 10 12 13 14 14 14 13 13 13 12 11 10
8 11 11 11 11 10 10 9 9 8 8 8 8 8 7 6 6 6 6 6 7 8 8 7 7 7 9 10 13 14 14 13 14 14 14 14 13 11
11 13 13 13 12 12 11 11 10 9 9 9 9 8 8 8 8 7 6 6 7 7 8 11 12 9 10 10 10 13 13 13 13 15 15 15 15 12
13 13 13 13 13 12 11 11 11 10 9 9 9 9 9 9 8 9 9 8 8 8 10 10 9 9 11 14 11 9 13 13 14 14 15 15 15 13
14 13 13 13 13 13 12 12 11 10 10 10 9 10 10 10 10 10 10 11 11 12 11 12 10 9 10 12 14 13 11 13 13 14 14 15 13 10
14 14 13 13 13 12 12 12 11 11 10 10 10 10 10 10 11 11 10 9 9 11 12 11 11 8 9 9 12 13 13 11 11 13 13 14 13 14
14 13 13 12 12 12 12 12 12 12 11 11 11 10 10 10 11 11 10 10 10 11 11 11 12 13 14 12 15 15 15 13 12 11 11 12 13 12
13 13 12 12 12 12 12 12 12 12 12 11 11 11 11 11 10 10 10 11 11 11 11 11 10 11 12 13 14 16 16 15 15 14 13 11 12 12

GFSNE_con_lsi_303.txt.gz
Lid_Strength_Index
19 19 19 19 18 18 18 18 19 22 21 19 18 16 16 15 14 14 14 12 11 10 10 10 9 9 8 7 7 6 7 7 6 5 4 4 -1 -1
19 19 19 18 18 18 17 17 18 19 21 18 17 17 16 15 14 14 14 12 12 11 11 10 10 9 8 8 8 7 6 8 7 5 4 4 3 -0
19 19 18 18 18 18 17 17 17 17 19 18 16 16 16 16 15 15 14 15 14 12 11 10 10 9 9 8 8 7 6 5 7 6 5 5 4 3
18 18 18 17 17 17 17 17 17 16 17 18 16 16 16 15 15 15 14 13 14 12 11 10 10 10 9 8 8 7 7 6 5 6 6 5 6 5
17 17 17 17 17 16 15 15 15 14 15 16 16 15 14 13 13 12 12 12 12 11 10 10 10 10 9 9 7 7 6 6 5 4 6 6 6 5
16 15 15 15 15 14 14 14 13 14 14 14 14 13 11 10 11 11 11 10 11 9 8 8 8 8 9 9 8 7 7 6 6 5 6 6 6 6
14 14 13 12 11 11 12 12 12 12 11 10 10 10 11 11 11 10 10 10 9 9 9 9 9 8 7 7 9 8 8 7 6 6 4 5 6 6
13 12 12 10 9 7 6 5 6 7 8 10 10 10 10 10 9 9 10 10 11 7 9 9 8 9 8 7 6 7 8 8 7 7 6 5 6 6
12 11 10 9 7 8 6 5 6 5 5 7 8 8 9 8 8 8 8 9 10 8 8 10 8 10 8 7 5 5 6 8 8 8 7 6 6 6
10 9 9 8 8 7 7 8 8 8 8 7 7 7 7 6 6 6 7 7 7 7 7 10 8 9 9 8 5 5 5 7 8 8 7 7 8 6
9 8 8 8 6 5 7 8 9 9 6 5 4 4 3 3 3 6 7 8 9 8 6 8 8 8 9 9 7 5 4 5 6 7 7 6 6 7
8 8 6 7 5 5 7 9 10 9 8 7 7 6 4 5 3 4 4 8 8 8 6 7 8 8 10 8 7 5 5 5 5 6 6 6 6 6
9 8 8 6 6 6 6 7 8 8 8 7 9 8 7 6 5 4 5 4 6 7 4 5 7 8 9 10 9 8 7 5 4 6 6 6 6 6
8 8 8 6 5 5 7 7 7 7 9 10 10 9 8 7 6 5 5 5 4 5 4 4 7 8 10 11 11 9 7 6 5 6 7 7 7 7
8 7 5 6 7 8 8 8 8 10 11 11 11 9 9 8 7 6 5 4 5 4 4 4 6 7 8 10 11 10 10 8 5 7 7 9 9 9
7 8 8 8 9 9 9 10 10 10 10 10 10 10 9 9 8 7 7 6 6 6 5 4 5 5 7 8 9 9 8 9 8 7 8 9 9 9
7 11 13 13 13 12 12 11 11 11 11 10 10 10 10 9 8 7 7 7 8 7 7 6 4 5 5 6 8 7 8 8 7 7 8 10 10 9
9 14 17 16 15 14 13 13 12 11 11 10 10 10 10 9 9 8 7 8 9 8 7 6 5 6 6 6 5 7 7 8 8 8 9 11 12 10
13 15 15 15 15 14 13 13 13 12 10 11 11 10 10 9 9 9 9 8 9 9 8 7 7 8 8 10 9 5 10 11 10 9 8 10 11 11
14 14 14 14 14 14 14 14 13 12 12 11 11 10 11 10 10 10 9 9 9 9 10 9 9 8 10 10 11 10 6 10 8 9 9 9 9 9
13 14 14 14 15 14 14 13 14 13 12 11 12 11 11 11 11 10 10 8 8 9 11 11 9 6 8 10 11 10 9 6 7 9 9 10 11 11
12 13 13 14 14 14 14 14 14 14 14 13 12 12 11 11 11 11 10 10 10 9 10 9 9 9 10 11 12 11 10 10 9 7 7 8 10 12
11 11 12 12 13 13 13 14 14 14 14 13 13 12 12 12 11 10 10 10 10 10 10 10 10 10 10 10 10 11 11 13 12 12 11 8 7 7

GFSNE_con_lsi_306.txt.gz
Lid_Strength_Index
20 19 20 20 19 19 18 19 20 22 21 20 19 17 17 17 16 15 15 13 11 11 11 10 10 10 9 8 8 7 7 7 6 6 7 6 5 4
19 20 19 19 19 18 18 18 18 20 22 19 18 18 16 16 15 15 15 13 12 11 11 11 10 10 9 9 8 8 8 7 6 6 5 5 6 5
19 19 19 19 19 18 18 18 18 19 20 19 17 16 17 17 16 16 15 16 16 12 11 11 10 10 10 9 9 8 8 7 7 6 5 4 5 6
18 19 18 17 18 18 18 18 18 18 18 19 18 17 17 16 16 17 16 15 15 13 11 11 10 10 10 10 9 9 8 8 7 7 6 5 4 4
18 18 18 18 18 17 17 17 17 16 16 17 17 16 16 16 16 15 15 15 14 12 11 11 10 10 10 10 10 9 9 9 8 7 6 6 5 4
16 16 17 17 17 17 16 16 16 16 16 16 16 15 15 14 15 15 16 14 15 13 12 11 11 10 10 10 10 10 9 9 8 7 7 6 6 5
16 15 15 14 13 13 14 15 15 15 15 15 15 14 13 13 14 14 14 14 14 13 13 13 13 14 13 11 11 10 10 9 9 8 7 6 6 6
14 13 13 12 11 9 9 8 9 13 14 14 14 14 13 12 11 11 11 12 14 10 11 11 10 11 11 11 10 10 10 9 9 9 8 8 7 7
13 12 12 11 10 11 10 9 9 8 8 11 12 12 12 9 8 9 9 9 10 9 10 11 9 10 9 8 7 7 7 8 8 9 9 8 8 7
11 12 12 12 12 11 11 11 11 10 9 9 10 10 9 8 7 7 8 8 8 8 8 11 9 9 8 8 5 5 5 5 6 7 8 8 8 8
11 11 12 12 9 8 10 9 9 9 6 5 5 5 5 4 5 6 7 8 10 9 7 8 9 8 8 8 7 4 4 4 4 5 5 5 6 7
10 10 8 8 6 6 7 8 9 9 9 8 8 7 6 6 5 7 8 10 10 10 7 8 8 8 9 7 6 6 5 3 4 4 4 4 3 6
9 8 8 6 5 5 5 7 8 6 7 9 9 9 9 9 9 8 8 7 8 9 5 6 8 8 8 9 8 6 5 6 6 6 5 4 3 3
8 7 7 6 5 5 6 6 6 7 9 9 10 10 10 10 9 9 8 8 7 7 6 5 6 6 8 9 9 7 6 6 6 5 5 5 3 3
6 6 5 5 6 8 8 7 7 9 10 12 12 11 10 10 9 9 9 8 8 6 5 5 5 5 6 8 8 8 8 7 7 7 6 5 5 5
6 6 6 7 8 9 10 10 10 10 11 11 10 11 10 11 11 10 10 9 9 9 6 5 5 5 6 7 7 8 7 8 7 6 6 6 6 5
6 8 12 12 12 12 12 12 11 11 12 11 11 11 11 11 10 10 10 10 10 10 9 7 5 5 5 6 7 6 6 7 6 7 7 7 7 6
8 13 15 16 15 14 14 13 12 11 11 11 11 11 11 11 11 10 9 10 11 10 10 8 7 7 7 5 4 6 5 6 5 6 7 8 9 7
12 13 14 15 15 15 14 14 13 12 11 11 11 11 11 11 11 11 11 10 10 10 9 8 8 9 10 11 7 2 5 6 6 8 9 8 9 8
13 13 14 14 15 16 15 15 14 13 13 12 12 12 11 11 12 12 11 11 11 10 10 8 8 9 10 11 10 8 5 6 7 7 8 8 8 6
12 13 13 13 14 15 15 15 14 14 13 13 12 13 12 12 12 12 11 9 9 10 11 10 8 6 7 9 11 10 8 5 5 8 9 9 10 10
11 12 12 12 12 13 13 14 14 14 14 14 14 13 12 12 12 12 11 11 11 10 10 9 8 8 10 10 11 12 11 9 7 6 6 8 10 12
11 11 10 11 11 12 12 13 14 14 14 14 14 13 13 13 12 11 11 11 11 11 10 10 10 9 10 10 10 11 11 11 10 11 11 8 8 8